This is the latest recevied weather packets stored in our database for station/object R1CBW-13. If no packets are shown the sender has not sent any weather packets the latest 10 day(s).
| Time | Temp. | Humidity | Pressure | Rain* | Wind** | Luminosity | Snow |
|---|---|---|---|---|---|---|---|
| 1778248695 | 11.67° C | 29% | 1023.8 hPa | 0 mm | - | - | - |
| 1778248635 | 11.67° C | 29% | 1023.8 hPa | 0 mm | - | - | - |
| 1778248575 | 12.78° C | 29% | 1023.8 hPa | 0 mm | - | - | - |
| 1778248515 | 12.78° C | 29% | 1023.6 hPa | 0 mm | - | - | - |
| 1778248455 | 12.22° C | 29% | 1023.7 hPa | 0 mm | - | - | - |
| 1778248395 | 12.22° C | 29% | 1023.7 hPa | 0 mm | - | - | - |
| 1778248338 | 12.22° C | 30% | 1023.8 hPa | 0 mm | - | - | - |
| 1778248275 | 12.78° C | 31% | 1023.7 hPa | 0 mm | - | - | - |
| 1778248215 | 12.78° C | 30% | 1023.6 hPa | 0 mm | - | - | - |
| 1778248155 | 12.78° C | 29% | 1023.6 hPa | 0 mm | - | - | - |
| 1778248095 | 12.78° C | 30% | 1023.6 hPa | 0 mm | - | - | - |
| 1778248035 | 12.78° C | 29% | 1023.6 hPa | 0 mm | - | - | - |
| 1778247975 | 12.22° C | 30% | 1023.7 hPa | 0 mm | - | - | - |
| 1778247915 | 12.22° C | 30% | 1023.8 hPa | 0 mm | - | - | - |
| 1778247855 | 12.78° C | 29% | 1023.6 hPa | 0 mm | - | - | - |
| 1778247795 | 12.78° C | 29% | 1023.6 hPa | 0 mm | - | - | - |
| 1778247735 | 12.78° C | 29% | 1023.6 hPa | 0 mm | - | - | - |
| 1778247675 | 12.78° C | 28% | 1023.5 hPa | 0 mm | - | - | - |
| 1778247615 | 12.78° C | 28% | 1023.5 hPa | 0 mm | - | - | - |
| 1778247555 | 12.22° C | 29% | 1023.6 hPa | 0 mm | - | - | - |
| 1778247495 | 11.67° C | 29% | 1023.6 hPa | 0 mm | - | - | - |
| 1778247435 | 12.22° C | 29% | 1023.5 hPa | 0 mm | - | - | - |
| 1778247375 | 12.22° C | 29% | 1023.6 hPa | 0 mm | - | - | - |
| 1778247315 | 11.67° C | 29% | 1023.6 hPa | 0 mm | - | - | - |
| 1778247255 | 12.78° C | 27% | 1023.6 hPa | 0 mm | - | - | - |
* Rain latest hour (hover to see other rain measurements)
** Current wind speed in m/s (hover to see current wind gust speed)